Other Public Products
Issued by NWS Charleston, SC

Current Version | Previous Version | Graphics & Text | Print | Product List | Glossary Off
Versions: 1 2 3 4 5 6 7 8 9 10 11 12 13 14 15 16 17 18 19 20 21 22 23 24 25 26 27 28 29 30 31 32 33 34 35 36 37 38 39 40 41 42 43 44 45 46 47 48 49 50
000 FPUS82 KCHS 110526 OPUCHS TEST...KCHS/KSAV Gateway Observations...TEST National Weather Service Charleston SC 1200 AM EST MON DEC 11 2017 NOTE: "fair" indicates few or no clouds below 12,000 feet with no significant weather and/or obstructions to visibility. SCZ050-WAZ558-NCZ071-TXZ119-213-PAZ071-DCZ001-FLZ074-172-MI076- NYZ176-178-MAZ016-IL014-TNZ027-NJZ106-GAZ044-MD014-110600- ...Gateway Observations for Charleston International... CITY SKY/WX TMP DP RH WIND PRES REMARKS Chas Airport CLEAR 35 31 85 SW5 30.25S WCI 31 Seattle CLEAR 40 28 62 N9 30.31S WCI 34 Charlotte CLEAR 35 24 64 SW3 30.15R Dallas DFW CLEAR 45 24 43 SW7 30.26F Dallas Love PTCLDY 53 24 32 CALM 30.28F Philladelphia CLOUDY 36 26 67 S9 30.05S WCI 29 Wash National CLOUDY 37 28 70 SW7 30.07R WCI 32 Baltimore CLOUDY 34 28 79 CALM 30.05S Miami CLEAR 55 41 59 NW5 30.27F Detroit CLOUDY 29 23 78 NW10 29.99R WCI 20 Newark CLOUDY 34 23 64 SW10 30.02S WCI 26 Laguardia CLOUDY 37 21 52 SW12 30.01S WCI 29 J F K CLOUDY 36 26 67 SW17 30.04S WCI 26 Boston Logan CLOUDY 34 24 67 SW9 29.95F WCI 27 Ft. Lauderdale CLEAR 52 40 63 NW9 30.25F Chicago O`Hare MOCLDY 26 18 71 NW3 30.07S Chicago Midway MOCLDY 29 19 66 N6 30.08S WCI 23 Houston Bush PTCLDY 49 37 63 SW5 30.36F Houston Hobby PTCLDY 45 37 73 SW3 30.36F Nashville CLEAR 43 25 49 SW3 30.18S Atlanta CLEAR 34 27 75 W8 30.24F WCI 27 $$ GAZ044-118-TXZ119-213-NCZ071-DCZ001-MDZ014-506-PAZ021-071-NJZ106- NYZ176-178-MAZ106-OHZ011-021-055-MIZ076-KYZ091-ILZ014-INZ047- MNZ060-ONZ431-110600- ...Gateway Observations for Savannah International... CITY SKY/WX TMP DP RH WIND PRES REMARKS Savannah Arpt CLEAR 36 30 79 CALM 30.28S Atlanta CLEAR 34 27 75 W8 30.24F WCI 27 Charlotte CLEAR 35 24 64 SW3 30.15R Dallas DFW CLEAR 45 24 43 SW7 30.26F Houston Bush PTCLDY 49 37 63 SW5 30.36F Wash National CLOUDY 37 28 70 SW7 30.07R WCI 32 Wash Dulles CLOUDY 34 26 72 S3 30.04S Baltimore CLOUDY 34 28 79 CALM 30.05S Philadelphia CLOUDY 36 26 67 S9 30.05S WCI 29 Newark CLOUDY 34 23 64 SW10 30.02S WCI 26 Laguardia CLOUDY 37 21 52 SW12 30.01S WCI 29 J F K CLOUDY 36 26 67 SW17 30.04S WCI 26 Boston CLOUDY 34 24 67 SW9 29.95F WCI 27 Pittsburg CLOUDY 33 18 53 SW9 29.96S WCI 25 Akron CLOUDY 30 19 63 SW7 29.94S WCI 23 Cleveland FLURRIES 31 21 66 W10 29.98S WCI 22 Cincinnati CLEAR 31 23 72 W8 30.06R WCI 23 Columbus CLOUDY 32 23 71 SW8 30.01R WCI 24 Detroit CLOUDY 29 23 78 NW10 29.99R WCI 20 Chicago O`Hare MOCLDY 26 18 71 NW3 30.07S Minneapolis CLOUDY 25 22 88 S3 29.98F Indianapolis CLEAR 27 21 78 W7 30.09R WCI 19 Toronto Canada CLOUDY 27 21 80 W8 29.87R WCI 18 $$

USA.gov is the U.S. government's official web portal to all federal, state and local government web resources and services.